Theta_e
297 297 298 299 299 300 301 300 301 302 302 305 307 311 317 321 323 325 326 326 324 324 325 325 325 325 323 323 323 322 322 322
295 296 296 297 298 298 299 300 301 302 302 304 306 309 311 315 320 322 324 322 322 322 323 324 324 324 323 323 323 322 322 322
294 294 294 295 296 296 297 298 299 301 301 302 306 310 311 312 315 318 319 320 320 321 323 323 324 324 323 322 322 321 320 320
292 292 292 292 294 293 294 295 297 297 298 300 301 306 311 314 314 315 316 317 318 321 321 322 322 322 322 322 321 321 321 320
290 289 290 290 291 291 291 294 293 293 294 296 299 301 306 311 311 313 315 317 317 318 319 320 320 321 321 320 320 320 319 319
287 287 287 287 288 289 289 289 290 290 291 294 297 299 300 301 303 304 306 307 308 308 309 312 315 314 317 318 318 318 317 314
285 285 285 285 286 287 287 286 288 288 289 292 292 293 296 296 296 296 298 300 301 300 301 302 303 296 297 299 308 309 309 311
282 283 283 283 284 284 284 284 286 286 287 289 287 287 289 291 291 293 294 295 295 295 296 296 297 295 295 294 300 302 303 302
281 280 281 281 283 281 282 282 285 284 285 286 285 285 287 288 288 289 293 292 292 293 293 293 292 294 294 294 297 295 294 294
280 279 278 279 279 277 278 280 282 281 282 282 283 284 285 286 288 290 291 290 290 289 288 288 290 293 293 292 289 288 287 288
277 277 276 276 276 275 276 277 277 278 278 279 281 282 284 286 288 289 288 287 286 286 286 286 287 291 292 291 286 286 285 285
274 273 274 274 274 273 273 273 274 275 276 277 278 281 284 286 287 288 287 286 285 285 285 286 286 287 291 292 287 287 286 285
271 271 271 272 271 270 270 272 271 272 272 273 276 279 283 286 286 287 286 285 285 285 284 285 285 287 290 291 290 289 286 285
269 268 269 269 269 267 268 269 269 268 268 270 274 277 283 285 285 286 286 285 285 285 284 283 284 285 289 290 291 289 285 286
266 265 265 266 267 266 267 267 266 265 267 269 272 276 282 285 285 285 286 285 285 285 284 283 283 283 284 285 286 287 287 288
264 263 263 265 264 265 266 265 265 265 267 269 274 278 281 283 283 283 284 285 286 286 286 284 283 284 285 285 285 285 286 285
263 262 263 262 263 264 265 264 264 265 268 269 272 276 280 281 281 285 286 287 287 287 286 284 286 287 287 287 287 288 286 283
262 261 261 262 262 264 264 265 264 266 267 269 272 274 278 279 278 276 279 281 281 283 286 286 286 286 287 287 287 287 284 280
260 260 260 260 261 264 264 265 265 266 267 268 270 271 273 274 275 274 271 271 272 276 278 281 283 285 285 283 279 276 276 275
256 258 259 260 261 264 264 264 265 266 267 267 268 269 270 271 271 270 269 269 270 271 272 272 277 277 277 276 271 270 269 270
Wind_Speed
8 8 8 8 10 13 12 9 9 8 6 6 8 9 9 11 13 13 11 11 11 12 13 15 16 16 16 14 14 15 13 12
8 10 8 8 11 12 14 14 14 14 9 8 8 9 9 8 9 10 10 8 10 10 12 14 15 16 15 15 15 16 16 14
8 8 8 11 12 13 14 14 14 15 15 12 9 9 9 9 8 7 7 7 8 9 10 12 13 14 16 16 14 15 14 14
10 9 11 12 12 13 15 15 15 17 16 15 13 10 10 9 10 8 7 7 7 8 9 9 10 11 12 14 14 14 14 13
8 9 9 12 13 13 14 14 16 17 16 16 15 14 11 9 9 9 7 5 5 4 5 5 6 8 10 11 12 13 13 13
11 11 12 14 15 15 15 16 15 16 16 16 17 17 13 9 8 7 7 6 5 5 5 5 4 3 6 9 11 12 11 10
10 12 13 14 15 16 16 18 16 17 17 16 17 17 15 12 8 7 8 8 6 5 5 5 4 4 5 4 5 6 7 9
13 13 12 15 15 15 17 18 16 17 17 15 18 18 17 15 11 9 9 6 6 6 6 6 5 5 6 7 5 5 5 5
13 14 14 15 13 15 16 16 16 18 18 15 16 17 18 17 13 8 7 7 6 6 5 5 4 6 6 6 2 2 2 2
12 14 13 14 15 16 15 15 16 16 17 18 17 17 16 17 16 13 9 6 6 5 5 5 6 7 6 3 3 3 3 2
13 13 14 15 16 16 14 16 15 16 18 17 17 17 16 15 15 11 7 6 4 4 5 5 5 6 8 6 2 4 3 1
13 13 14 16 16 17 16 15 16 17 17 18 17 17 16 15 12 12 9 5 4 5 3 4 4 5 7 9 4 4 5 4
14 14 15 15 15 17 17 18 18 18 18 17 18 15 13 14 12 11 8 6 5 4 3 2 3 4 5 8 8 8 5 5
14 15 14 14 15 17 18 18 19 18 18 18 18 16 15 12 11 9 7 6 5 5 4 3 2 1 3 4 6 8 3 4
15 14 14 14 15 15 17 17 17 18 18 16 16 16 14 9 7 7 6 6 6 5 5 4 3 2 2 1 2 7 6 10
12 13 15 16 16 15 16 16 16 16 16 16 13 15 13 9 5 4 4 5 5 6 5 6 5 5 5 4 3 3 7 8
13 13 15 15 16 17 16 16 16 15 13 12 12 12 10 5 3 16 14 16 14 6 2 1 2 8 9 8 10 13 10 4
12 12 13 14 15 16 18 17 16 14 15 12 11 10 9 3 4 5 8 16 24 28 13 6 6 6 6 8 9 10 8 6
8 9 11 13 14 17 17 17 16 15 17 11 10 10 9 8 7 6 7 8 9 14 23 28 24 16 16 18 16 8 10 7
6 7 11 12 15 16 17 17 15 13 12 12 10 10 11 9 9 9 9 8 8 8 12 17 21 25 26 23 10 8 8 8
Wind_Direction
37 31 17 9 356 356 347 326 308 309 303 304 299 294 275 261 244 235 231 226 227 222 220 219 218 215 213 218 222 224 225 228
45 29 15 6 7 356 357 350 346 335 312 312 311 305 298 276 259 248 239 218 221 222 222 219 221 219 215 222 224 226 228 228
49 28 12 5 2 358 351 349 350 342 335 315 311 311 307 298 278 254 240 235 227 224 224 226 223 217 217 217 219 227 230 232
35 26 12 3 357 353 349 343 344 344 335 328 318 317 313 312 310 293 270 251 242 237 235 236 225 218 216 220 219 221 226 226
26 18 8 359 352 348 346 348 343 337 335 331 328 319 311 313 318 323 320 315 316 296 274 243 223 217 218 218 222 224 226 224
11 2 2 355 349 346 342 342 344 336 334 333 329 325 315 317 316 319 323 328 326 324 320 313 280 253 239 224 227 231 229 220
2 1 359 352 344 340 337 337 338 337 335 329 340 333 325 319 315 318 318 319 312 305 293 292 289 321 313 294 261 240 233 229
2 353 344 345 338 343 333 329 329 333 333 334 337 331 326 319 310 305 304 302 305 307 305 287 281 303 298 284 256 246 239 232
349 341 344 337 343 337 328 323 325 327 328 333 330 325 322 320 314 298 291 282 278 275 274 281 275 286 288 290 232 135 104 173
343 335 334 335 338 331 325 321 326 326 324 327 323 318 315 313 310 303 288 271 265 258 263 254 257 256 260 209 154 137 123 92
338 335 331 338 332 326 326 324 321 323 318 314 313 309 305 303 300 293 266 260 264 258 256 253 248 247 250 220 170 150 148 116
343 335 339 330 331 327 324 317 322 316 310 310 306 303 297 295 294 286 270 255 244 247 247 253 245 254 247 221 199 177 162 158
341 339 332 334 331 326 322 324 317 315 311 307 304 300 294 293 294 284 265 246 236 226 239 239 252 247 250 230 215 185 165 163
336 329 334 334 330 320 319 319 318 314 309 307 303 297 292 292 290 286 259 246 236 218 217 218 223 234 205 197 181 165 121 135
336 336 331 331 326 316 316 318 315 312 308 305 302 298 291 289 280 275 263 248 240 221 211 203 211 201 193 140 126 137 128 129
338 334 329 330 325 324 323 323 317 312 308 307 303 305 300 285 275 280 274 266 259 241 218 191 204 210 186 164 137 142 131 119
340 337 335 332 327 330 330 326 320 315 318 312 310 308 297 290 313 36 40 35 19 320 219 342 192 174 176 167 153 137 126 102
338 334 333 333 331 336 334 330 327 324 324 320 319 323 325 9 11 8 5 27 31 26 37 74 98 112 125 106 104 104 98 98
319 331 335 335 337 341 338 335 334 337 338 336 337 343 348 4 28 37 32 19 11 11 30 48 54 64 63 58 52 37 40 51
314 335 343 342 341 346 341 343 342 346 351 350 354 0 6 15 29 33 35 30 21 17 16 16 38 53 50 51 53 40 34 33